STARLINK-5268 (54192 NORAD) Tracking and Keplerian Element Data

This shows tracking and keplerian element data for the satellite.

Feedback or suggestion? Click here.




ElementValue
Catalog54192
NameSTARLINK-5268
Epoch Orbit402
Epoch Day324.91667824
Epoch Year2022
RAAN25.7298
Inclination53.2184
Eccentricity0.0003272
Argument of Perigee13.5772
Mean Anonmoly293.851
Mean Motion15.73175241
Decay Rate0.00024881
L11 54192U 22141AM 22324.91667824 .00024881 00000+0 18134-3 0 9999
L22 54192 53.2184 25.7298 0003272 13.5772 293.8510 15.73175241 4028



Live tracking and technical data element details for STARLINK-5268 (NORAD 54192). STARLINK-5268 can be tracked NOW for your location showing map with azimuth and elevation plus other details from your city location.







IsCatalogInMostPopularTable: catalog: 54192, numindb: 8
Update: records affected: 1



GetName: 54192 STARLINK-5268

Hit Count: updated at: Fri, 09 Dec 2022 20:07:05 GMT